| time (UTC) | temp F | wind direction | speed knots | gust knots | rain 1hr in | rain 24hr in | rain mn in | humidity % | barometer mb |
| 20260502163031 | 75 | 45 | 0.9 | 3.5 | 0.00 | 0.00 | 0.00 | 44 | 1016.9 |
| 20260502162030 | 78 | 36 | 0.9 | 2.6 | 0.00 | 0.00 | 0.00 | 40 | 1017.2 |
| 20260502161030 | 78 | 33 | 0.0 | 1.7 | 0.00 | 0.00 | 0.00 | 39 | 1017.2 |
| 20260502152030 | 82 | 33 | 0.9 | 7.0 | 0.00 | 0.00 | 0.00 | 36 | 1017.7 |
| 20260502151030 | 81 | 196 | 0.9 | 2.6 | 0.00 | 0.00 | 0.00 | 35 | 1017.7 |
| 20260502123029 | 78 | 187 | 2.6 | 6.1 | 0.00 | 0.00 | 0.00 | 41 | 1020.0 |
| 20260502122029 | 77 | 36 | 1.7 | 7.0 | 0.00 | 0.00 | 0.00 | 42 | 1020.1 |
| 20260502121030 | 77 | 191 | 3.5 | 7.0 | 0.00 | 0.00 | 0.00 | 42 | 1020.1 |
| 20260502115031 | 76 | 162 | 2.6 | 5.2 | 0.00 | 0.00 | 0.00 | 41 | 1020.5 |
| 20260502114030 | 76 | 195 | 0.9 | 3.5 | 0.00 | 0.00 | 0.00 | 43 | 1020.5 |
| 20260502113030 | 76 | 171 | 2.6 | 7.0 | 0.00 | 0.00 | 0.00 | 42 | 1020.8 |
| 20260502112030 | 76 | 174 | 2.6 | 5.2 | 0.00 | 0.00 | 0.00 | 42 | 1020.7 |
| 20260502111030 | 75 | 216 | 2.6 | 7.8 | 0.00 | 0.00 | 0.00 | 42 | 1020.9 |
| 20260502110031 | 76 | 209 | 0.9 | 2.6 | 0.00 | 0.00 | 0.00 | 42 | 1021.0 |
| 20260502105030 | 75 | 202 | 1.7 | 6.1 | 0.00 | 0.00 | 0.00 | 42 | 1021.1 |
| 20260502104030 | 76 | 176 | 1.7 | 5.2 | 0.00 | 0.00 | 0.00 | 42 | 1021.2 |
| 20260502103031 | 76 | 33 | 0.9 | 3.5 | 0.00 | 0.00 | 0.00 | 44 | 1021.3 |
| 20260502102030 | 77 | 181 | 0.9 | 2.6 | 0.00 | 0.00 | 0.00 | 41 | 1021.5 |
| 20260502101030 | 75 | 145 | 0.0 | 1.7 | 0.00 | 0.00 | 0.00 | 45 | 1021.7 |
| 20260502091031 | 70 | 197 | 2.6 | 6.1 | 0.00 | 0.00 | 0.00 | 48 | 1022.3 |
| 20260502071030 | 58 | 198 | 0.0 | 1.7 | 0.00 | 0.00 | 0.00 | 63 | 1022.8 |
| 20260502070031 | 56 | 52 | 0.0 | 0.9 | 0.00 | 0.00 | 0.00 | 67 | 1022.9 |
| 20260502065031 | 54 | 52 | 0.0 | 0.9 | 0.00 | 0.00 | 0.00 | 67 | 1022.8 |
| 20260502064031 | 52 | 51 | 0.0 | 0.9 | 0.00 | 0.00 | 0.00 | 77 | 1022.9 |
| 20260502063031 | 51 | 47 | 0.9 | 1.7 | 0.00 | 0.00 | 0.00 | 79 | 1022.8 |
| 20260502062030 | 50 | 35 | 0.9 | 1.7 | 0.00 | 0.00 | 0.00 | 80 | 1022.9 |
| 20260502061031 | 49 | 32 | 0.9 | 1.7 | 0.00 | 0.00 | 0.00 | 83 | 1023.0 |
| 20260502060030 | 48 | 38 | 0.0 | 1.7 | 0.00 | 0.00 | 0.00 | 83 | 1022.9 |
| 20260502055030 | 47 | 45 | 0.9 | 1.7 | 0.00 | 0.00 | 0.00 | 83 | 1023.0 |
| 20260502054030 | 47 | 0.0 | 0.0 | 0.00 | 0.00 | 0.00 | 83 | 1023.0 | |
| 20260502053030 | 46 | 39 | 0.9 | 1.7 | 0.00 | 0.00 | 0.00 | 82 | 1023.0 |
| 20260502052031 | 46 | 25 | 0.9 | 0.9 | 0.00 | 0.00 | 0.00 | 83 | 1022.9 |
| 20260502051029 | 45 | 23 | 0.0 | 0.9 | 0.00 | 0.00 | 0.00 | 83 | 1022.8 |
| 20260502050031 | 45 | 39 | 0.0 | 0.9 | 0.00 | 0.00 | 0.00 | 84 | 1022.9 |
| 20260502045030 | 44 | 43 | 0.9 | 1.7 | 0.00 | 0.00 | 0.00 | 85 | 1022.8 |
| 20260502044030 | 43 | 43 | 0.0 | 0.9 | 0.00 | 0.00 | 0.00 | 84 | 1022.8 |
| 20260502043030 | 43 | 43 | 0.9 | 1.7 | 0.00 | 0.00 | 0.00 | 85 | 1022.8 |
| 20260502042030 | 43 | 0.0 | 0.9 | 0.00 | 0.00 | 0.00 | 84 | 1022.9 | |
| 20260502041030 | 42 | 35 | 0.9 | 1.7 | 0.00 | 0.00 | 0.00 | 84 | 1022.9 |
| 20260502040031 | 43 | 38 | 0.9 | 0.9 | 0.00 | 0.00 | 0.00 | 84 | 1022.9 |
| 20260502035031 | 43 | 33 | 0.0 | 1.7 | 0.00 | 0.00 | 0.00 | 84 | 1022.9 |
| 20260502034030 | 42 | 0.0 | 0.9 | 0.00 | 0.00 | 0.00 | 84 | 1022.8 | |
| 20260502033031 | 43 | 32 | 1.7 | 1.7 | 0.00 | 0.00 | 0.00 | 82 | 1022.9 |
| 20260502032031 | 43 | 29 | 0.0 | 0.9 | 0.00 | 0.00 | 0.00 | 82 | 1022.8 |
| 20260502031030 | 43 | 37 | 0.9 | 1.7 | 0.00 | 0.00 | 0.00 | 82 | 1022.8 |
| 20260502030030 | 43 | 49 | 0.9 | 1.7 | 0.00 | 0.00 | 0.00 | 83 | 1022.9 |
| 20260502025030 | 43 | 49 | 0.0 | 0.9 | 0.00 | 0.00 | 0.00 | 82 | 1022.9 |
| 20260502024030 | 43 | 0.0 | 0.9 | 0.00 | 0.00 | 0.00 | 82 | 1023.0 | |
| 20260502022029 | 45 | 0.0 | 0.9 | 0.00 | 0.00 | 0.00 | 79 | 1022.9 | |
| 20260502021029 | 46 | 52 | 0.9 | 1.7 | 0.00 | 0.00 | 0.00 | 76 | 1022.9 |
| 20260502020030 | 46 | 32 | 0.9 | 1.7 | 0.00 | 0.00 | 0.00 | 76 | 1022.9 |
| 20260502015030 | 45 | 40 | 0.9 | 1.7 | 0.00 | 0.00 | 0.00 | 76 | 1022.9 |
| 20260502014030 | 45 | 37 | 1.7 | 2.6 | 0.00 | 0.00 | 0.00 | 78 | 1023.1 |
| 20260502013030 | 45 | 33 | 0.9 | 1.7 | 0.00 | 0.00 | 0.00 | 77 | 1023.1 |
| 20260502012030 | 45 | 36 | 0.0 | 1.7 | 0.00 | 0.00 | 0.00 | 76 | 1023.1 |
| 20260502011030 | 46 | 30 | 0.9 | 1.7 | 0.00 | 0.00 | 0.00 | 75 | 1023.1 |
| 20260502010031 | 46 | 39 | 0.9 | 1.7 | 0.00 | 0.00 | 0.00 | 74 | 1023.1 |
| 20260502005030 | 46 | 40 | 1.7 | 2.6 | 0.00 | 0.00 | 0.00 | 75 | 1023.3 |
| 20260502004030 | 46 | 30 | 0.9 | 1.7 | 0.00 | 0.00 | 0.00 | 75 | 1023.3 |
| 20260502003030 | 46 | 34 | 0.9 | 2.6 | 0.00 | 0.00 | 0.00 | 74 | 1023.3 |
| 20260502002030 | 47 | 42 | 0.9 | 1.7 | 0.00 | 0.00 | 0.00 | 72 | 1023.5 |
| 20260502001030 | 46 | 38 | 1.7 | 2.6 | 0.00 | 0.00 | 0.00 | 74 | 1023.4 |
| 20260502000031 | 45 | 29 | 0.9 | 1.7 | 0.00 | 0.00 | 0.00 | 78 | 1023.5 |
| 20260501235031 | 45 | 31 | 0.9 | 2.6 | 0.00 | 0.00 | 0.00 | 78 | 1023.7 |
| 20260501234031 | 45 | 16 | 0.9 | 1.7 | 0.00 | 0.00 | 0.00 | 77 | 1023.6 |
| 20260501233031 | 46 | 20 | 0.9 | 1.7 | 0.00 | 0.00 | 0.00 | 75 | 1023.6 |
| 20260501232030 | 46 | 26 | 0.9 | 1.7 | 0.00 | 0.00 | 0.00 | 74 | 1023.7 |
| 20260501231031 | 46 | 26 | 0.9 | 1.7 | 0.00 | 0.00 | 0.00 | 73 | 1023.7 |
| 20260501230031 | 46 | 37 | 0.9 | 0.9 | 0.00 | 0.00 | 0.00 | 75 | 1023.8 |
| 20260501225030 | 46 | 29 | 0.9 | 2.6 | 0.00 | 0.00 | 0.00 | 75 | 1023.8 |
| 20260501224030 | 46 | 30 | 0.0 | 0.9 | 0.00 | 0.00 | 0.00 | 73 | 1023.7 |
| 20260501223031 | 47 | 34 | 0.9 | 1.7 | 0.00 | 0.00 | 0.00 | 73 | 1023.7 |
| 20260501222030 | 48 | 30 | 0.0 | 1.7 | 0.00 | 0.00 | 0.00 | 70 | 1023.8 |
| 20260501221030 | 49 | 25 | 0.9 | 2.6 | 0.00 | 0.00 | 0.00 | 70 | 1023.7 |
| 20260501220030 | 48 | 36 | 0.9 | 2.6 | 0.00 | 0.00 | 0.00 | 69 | 1023.8 |
| 20260501215031 | 47 | 23 | 1.7 | 2.6 | 0.00 | 0.00 | 0.00 | 72 | 1023.6 |
| 20260501214031 | 47 | 22 | 0.9 | 1.7 | 0.00 | 0.00 | 0.00 | 72 | 1023.7 |
| 20260501213030 | 46 | 31 | 1.7 | 2.6 | 0.00 | 0.00 | 0.00 | 75 | 1023.6 |
| 20260501212030 | 47 | 32 | 0.9 | 1.7 | 0.00 | 0.00 | 0.00 | 73 | 1023.6 |
| 20260501211030 | 47 | 41 | 0.9 | 1.7 | 0.00 | 0.00 | 0.00 | 73 | 1023.6 |
| 20260501210031 | 48 | 31 | 0.9 | 1.7 | 0.00 | 0.00 | 0.00 | 72 | 1023.7 |
| 20260501205031 | 48 | 37 | 0.9 | 2.6 | 0.00 | 0.00 | 0.00 | 74 | 1023.5 |
| 20260501204030 | 47 | 26 | 0.9 | 1.7 | 0.00 | 0.00 | 0.00 | 76 | 1023.5 |
| 20260501203031 | 48 | 29 | 0.9 | 1.7 | 0.00 | 0.00 | 0.00 | 75 | 1023.4 |
| 20260501202030 | 49 | 35 | 1.7 | 2.6 | 0.00 | 0.00 | 0.00 | 73 | 1023.5 |
| 20260501201030 | 50 | 31 | 0.9 | 1.7 | 0.00 | 0.00 | 0.00 | 71 | 1023.7 |
| 20260501200030 | 50 | 36 | 0.9 | 2.6 | 0.00 | 0.00 | 0.00 | 73 | 1023.6 |
| 20260501195030 | 51 | 36 | 2.6 | 2.6 | 0.00 | 0.00 | 0.00 | 71 | 1023.4 |
| 20260501194030 | 51 | 37 | 0.9 | 2.6 | 0.00 | 0.00 | 0.00 | 73 | 1023.5 |
| 20260501193030 | 51 | 39 | 1.7 | 2.6 | 0.00 | 0.00 | 0.00 | 73 | 1023.3 |
| 20260501192030 | 52 | 31 | 0.9 | 1.7 | 0.00 | 0.00 | 0.00 | 72 | 1023.3 |
| 20260501191030 | 53 | 27 | 0.9 | 2.6 | 0.00 | 0.00 | 0.00 | 71 | 1023.3 |
| 20260501190030 | 54 | 37 | 1.7 | 2.6 | 0.00 | 0.00 | 0.00 | 69 | 1023.3 |
| 20260501185030 | 55 | 37 | 0.9 | 2.6 | 0.00 | 0.00 | 0.00 | 67 | 1023.1 |
| 20260501184030 | 56 | 38 | 0.9 | 2.6 | 0.00 | 0.00 | 0.00 | 66 | 1023.0 |
| 20260501183030 | 57 | 37 | 1.7 | 2.6 | 0.00 | 0.00 | 0.00 | 65 | 1022.8 |
| 20260501182030 | 58 | 39 | 1.7 | 2.6 | 0.00 | 0.00 | 0.00 | 63 | 1022.7 |
| 20260501181030 | 59 | 42 | 0.9 | 2.6 | 0.00 | 0.00 | 0.00 | 63 | 1022.6 |
| 20260501180031 | 60 | 31 | 0.9 | 2.6 | 0.00 | 0.00 | 0.00 | 59 | 1022.5 |
| 20260501175031 | 60 | 36 | 0.0 | 1.7 | 0.00 | 0.00 | 0.00 | 60 | 1022.4 |
| 20260501174031 | 61 | 32 | 0.9 | 2.6 | 0.00 | 0.00 | 0.00 | 58 | 1022.3 |
| 20260501173030 | 61 | 39 | 0.9 | 1.7 | 0.00 | 0.00 | 0.00 | 59 | 1022.3 |
| 20260501172030 | 63 | 41 | 0.9 | 1.7 | 0.00 | 0.00 | 0.00 | 58 | 1022.3 |
| 20260501171030 | 64 | 43 | 0.9 | 2.6 | 0.00 | 0.00 | 0.00 | 55 | 1022.3 |
| 20260501170030 | 65 | 44 | 0.9 | 2.6 | 0.00 | 0.00 | 0.00 | 51 | 1022.2 |
| 20260501165030 | 65 | 42 | 0.9 | 1.7 | 0.00 | 0.00 | 0.00 | 50 | 1022.3 |
| 20260501164030 | 68 | 35 | 1.7 | 2.6 | 0.00 | 0.00 | 0.00 | 48 | 1022.2 |